Location: Bucharest
(44.4268°N, 26.1025°E)
Time: 15:00:43
(UTC+03:00)

JY1SAT - Visible Passes

Search period start: 28 June 2022 00:00
Search period end: 08 July 2022 00:00
Orbit: 566 x 585 km, 97.6° (Epoch: 27 June)

Date Brightness Start Highest point End Pass type
(mag) Time Alt. Az. Time Alt. Az. Time Alt. Az.
28 Jun ? 23:04:10 19° S 23:06:53 50° W 23:10:56 10° NNW visible
29 Jun ? 23:07:49 19° SSW 23:10:31 45° W 23:14:32 10° NNW visible
30 Jun ? 23:11:29 18° SSW 23:14:09 41° W 23:18:06 10° NNW visible
01 Jul ? 21:39:43 10° ESE 21:42:47 20° ENE 21:45:52 10° NNE visible
01 Jul ? 23:15:09 18° SSW 23:17:47 37° W 23:21:40 10° NNW visible
02 Jul ? 21:43:09 10° ESE 21:46:22 22° ENE 21:49:35 10° NNE visible
02 Jul ? 23:18:49 17° SSW 23:21:24 34° W 23:25:13 10° NNW visible
03 Jul ? 21:46:36 10° ESE 21:49:57 24° ENE 21:53:17 10° NNE visible
03 Jul ? 23:22:29 17° SSW 23:25:02 31° W 23:28:46 10° NNW visible
04 Jul ? 21:50:05 10° SE 21:53:31 26° ENE 21:56:59 10° NNE visible
04 Jul ? 23:26:09 16° SSW 23:28:40 29° W 23:32:18 10° NW visible
05 Jul ? 21:53:34 10° SE 21:57:06 28° ENE 22:00:40 10° N visible
05 Jul ? 23:29:49 15° SW 23:32:18 26° W 23:35:49 10° NW visible
06 Jul ? 21:57:14 11° SE 22:00:41 30° ENE 22:04:20 10° N visible
06 Jul ? 23:33:28 15° SW 23:35:56 24° W 23:39:20 10° NW visible
07 Jul ? 22:00:53 12° SE 22:04:16 33° ENE 22:07:59 10° N visible
07 Jul ? 23:37:08 14° SW 23:39:34 22° W 23:42:50 10° NW visible
